Vorticity
8 12 11 0 10 16 8 21 3 3 3 -13 11 8 9 13 5 -1 15 19 20 26 13 9 10 7 4 4 4 4 4 3 2 2 2 3 3 4 5 8 6 8 7 3
-0 2 12 1 8 -0 3 -2 4 22 -7 -3 13 23 19 9 10 -0 2 12 9 5 10 7 6 10 6 2 3 2 3 2 2 1 1 1 2 4 4 7 7 9 6 2
5 -8 2 1 4 1 1 -1 -1 9 -10 12 28 19 -2 5 6 5 6 -1 4 1 14 9 5 8 6 5 3 3 4 4 5 2 1 3 4 4 5 12 8 7 2 5
10 17 5 20 10 4 22 5 -9 22 18 6 -0 3 16 15 5 9 5 1 2 5 2 2 6 11 18 20 8 8 8 5 6 3 3 9 3 1 3 11 7 4 4 8
3 8 10 7 18 14 7 1 -2 19 16 16 19 10 7 28 9 10 13 13 6 2 -0 -6 0 9 5 1 -3 5 2 4 3 8 -3 16 12 6 2 10 8 4 7 6
6 -3 3 8 18 13 7 8 18 19 3 14 14 4 14 8 22 12 12 9 6 8 5 2 5 2 -0 2 1 2 18 7 5 7 1 5 13 8 5 12 3 4 2 5
7 -4 16 3 17 10 6 9 8 9 10 0 8 11 -16 15 0 11 21 20 21 14 6 4 4 6 11 7 3 6 6 5 7 12 6 7 2 13 23 22 5 5 5 4
-4 24 6 -0 4 8 13 10 2 10 7 0 3 8 -10 -2 3 9 30 8 14 12 25 15 5 4 6 9 3 10 7 12 5 12 7 -1 6 14 18 11 3 5 4 2
28 -2 -3 13 11 4 13 8 8 8 15 11 9 10 11 19 22 20 14 7 8 15 18 17 10 6 18 18 8 3 7 13 7 7 4 -4 11 19 15 6 0 1 2 -0
-9 13 3 12 3 4 -4 -1 3 11 6 9 13 10 -8 12 26 20 12 19 26 24 16 19 3 17 19 17 8 8 11 4 14 4 4 6 17 13 5 8 21 22 15 15
10 -12 8 9 6 2 3 -1 3 5 4 9 6 9 4 9 16 -10 -3 -1 3 21 16 11 6 -1 7 12 21 19 12 11 8 6 9 11 12 10 9 8 17 8 6 1
14 8 20 -5 -3 3 4 10 13 -12 10 2 3 -3 24 8 6 14 17 8 10 2 5 21 27 15 7 6 9 14 10 12 11 11 9 9 13 9 11 7 10 9 6 1
13 16 15 34 25 13 -0 11 16 8 1 -2 -10 -12 -29 -10 -1 7 9 -1 -3 7 6 4 1 4 3 6 3 6 3 8 13 7 -3 5 2 0 6 13 5 1 12 2
17 8 -10 -31 -26 -2 15 6 24 26 8 -0 -14 4 9 18 16 7 7 7 2 13 7 2 -0 4 5 3 1 5 2 6 7 9 6 8 8 7 9 0 10 5 8 8
5 -6 17 9 9 16 4 4 25 10 15 7 9 10 14 12 18 9 11 9 6 17 22 5 6 5 3 4 4 5 8 5 9 11 7 3 12 2 1 15 -2 15 -26 50
17 9 19 20 7 -1 6 9 6 7 6 3 9 6 -3 -1 7 5 4 10 2 12 10 9 13 10 10 8 8 7 6 11 4 9 10 15 9 5 7 12 12 25 -20 -5
3 6 -4 21 6 20 26 4 2 4 7 8 1 -2 -4 2 2 2 13 13 13 14 15 20 13 9 7 6 12 15 17 16 12 10 9 10 12 4 10 8 1 -6 16 21
20 17 14 11 19 10 -0 11 1 4 6 8 10 7 13 14 11 23 29 18 9 8 6 5 4 4 7 9 8 8 8 6 1 19 11 8 7 7 3 19 -10 7 11 12
16 12 6 -8 3 -4 5 -14 2 4 14 28 30 34 32 25 23 17 11 11 8 4 5 6 9 12 10 9 10 11 10 17 17 7 3 8 6 3 8 -6 14 26 -2 6
8 17 8 14 2 -12 11 32 33 8 -3 2 7 8 10 19 10 10 5 4 8 6 8 8 8 10 12 13 14 14 11 9 7 9 8 7 4 22 39 -1 -8 12 19 15
12 16 8 -1 3 21 1 2 8 17 -25 8 10 20 14 11 7 2 7 5 2 3 7 9 12 12 11 10 8 8 8 11 10 7 13 25 8 -6 -8 14 20 14 8 8
4 -6 9 14 16 24 -11 7 -2 12 13 14 13 22 15 5 6 5 5 -1 5 8 11 11 11 9 7 5 9 10 12 6 2 9 7 6 7 13 19 12 9 11 11 8
24 -2 -2 -2 -2 -9 -7 -12 9 8 19 12 24 18 20 8 9 5 -0 7 9 9 11 10 7 7 3 13 10 12 1 6 7 8 23 10 17 10 10 12 8 6 5 5
19 6 12 4 4 9 -3 3 14 2 22 17 3 16 12 10 3 -1 7 6 4 8 10 7 9 7 14 12 4 4 4 6 27 15 14 6 11 10 6 7 5 6 7 7
19 26 9 3 1 2 2 10 20 20 13 10 12 5 8 5 0 5 6 7 5 9 11 10 9 10 9 5 7 10 26 14 8 9 11 10 7 6 6 6 6 7 7 8
-0 -1 -0 -1 27 -4 16 23 26 20 9 5 9 7 8 3 3 3 6 7 9 14 12 10 9 6 7 17 21 9 8 9 11 8 6 6 6 6 6 7 6 6 8 8
Height
3111 3111 3109 3110 3111 3111 3111 3110 3112 3112 3112 3112 3111 3111 3111 3113 3114 3114 3115 3115 3118 3121 3122 3123 3124 3126 3127 3129 3131 3133 3135 3138 3140 3141 3143 3145 3147 3147 3149 3150 3152 3153 3152 3152
3110 3108 3109 3109 3110 3110 3110 3110 3111 3111 3111 3110 3108 3109 3109 3110 3112 3114 3115 3116 3118 3119 3120 3121 3124 3125 3128 3129 3132 3133 3135 3138 3139 3141 3142 3143 3145 3146 3146 3147 3148 3148 3149 3147
3107 3108 3107 3108 3109 3110 3110 3110 3109 3110 3110 3109 3106 3106 3108 3108 3110 3111 3112 3115 3118 3120 3121 3122 3124 3127 3128 3130 3132 3134 3136 3137 3138 3139 3140 3140 3140 3141 3143 3144 3144 3143 3143 3143
3106 3105 3105 3105 3106 3108 3108 3109 3109 3108 3108 3109 3107 3106 3105 3105 3107 3108 3110 3111 3114 3117 3119 3121 3122 3124 3127 3129 3130 3131 3132 3134 3135 3135 3136 3136 3136 3138 3139 3139 3138 3138 3139 3139
3103 3102 3103 3104 3104 3104 3106 3107 3107 3106 3106 3107 3107 3107 3103 3103 3104 3104 3105 3107 3109 3113 3116 3118 3120 3123 3125 3126 3127 3129 3130 3130 3131 3131 3132 3132 3132 3133 3134 3134 3134 3135 3135 3134
3099 3100 3102 3101 3101 3102 3103 3105 3104 3104 3105 3106 3104 3105 3100 3100 3100 3101 3101 3102 3104 3107 3110 3112 3116 3118 3120 3121 3123 3125 3126 3127 3127 3127 3128 3127 3128 3129 3129 3130 3129 3130 3130 3129
3097 3097 3099 3100 3100 3100 3101 3103 3103 3106 3106 3104 3102 3102 3097 3098 3097 3097 3096 3097 3099 3102 3105 3108 3111 3114 3115 3118 3120 3122 3122 3122 3122 3122 3123 3123 3123 3123 3123 3123 3123 3124 3124 3123
3094 3096 3096 3098 3099 3099 3099 3101 3102 3104 3107 3102 3100 3097 3095 3095 3094 3094 3093 3094 3095 3097 3099 3102 3106 3109 3111 3113 3115 3116 3117 3117 3117 3117 3117 3117 3118 3117 3117 3117 3118 3118 3118 3117
3090 3092 3094 3095 3097 3098 3097 3098 3101 3101 3102 3103 3098 3095 3093 3092 3091 3091 3091 3091 3092 3094 3095 3097 3101 3104 3105 3108 3109 3111 3112 3113 3112 3112 3112 3112 3112 3112 3112 3113 3112 3112 3112 3111
3088 3090 3090 3093 3094 3095 3095 3097 3098 3099 3101 3100 3095 3094 3093 3091 3090 3090 3090 3089 3089 3089 3091 3093 3096 3099 3100 3102 3104 3106 3106 3107 3107 3108 3107 3108 3107 3106 3106 3106 3106 3106 3104 3103
3085 3088 3090 3090 3091 3092 3094 3093 3095 3096 3097 3097 3099 3092 3092 3091 3091 3090 3090 3090 3089 3088 3088 3090 3093 3095 3096 3097 3098 3100 3100 3101 3102 3102 3101 3101 3100 3100 3100 3100 3099 3098 3096 3095
3081 3083 3085 3086 3088 3089 3090 3090 3091 3092 3094 3093 3092 3087 3089 3090 3090 3090 3091 3090 3090 3090 3090 3089 3090 3092 3093 3094 3095 3095 3095 3095 3097 3097 3096 3096 3096 3095 3094 3092 3091 3090 3089 3087
3077 3078 3081 3082 3085 3084 3084 3086 3086 3087 3087 3087 3090 3085 3087 3088 3088 3088 3089 3089 3089 3089 3089 3089 3089 3090 3091 3091 3092 3092 3091 3091 3092 3092 3091 3091 3090 3089 3087 3086 3085 3083 3081 3079
3072 3073 3074 3076 3077 3080 3080 3081 3081 3082 3083 3083 3081 3082 3083 3084 3084 3085 3085 3086 3085 3085 3086 3086 3087 3087 3087 3088 3088 3088 3087 3088 3087 3086 3085 3084 3083 3081 3078 3078 3076 3075 3072 3069
3067 3068 3070 3071 3073 3074 3076 3077 3076 3076 3078 3077 3078 3078 3080 3080 3080 3081 3081 3081 3081 3080 3081 3082 3082 3082 3083 3083 3084 3083 3082 3080 3080 3079 3078 3077 3075 3074 3069 3070 3069 3065 3062 3059
3061 3063 3064 3066 3068 3069 3071 3073 3074 3073 3073 3072 3073 3072 3076 3076 3076 3077 3076 3076 3076 3076 3075 3076 3076 3076 3076 3077 3076 3077 3076 3075 3074 3073 3070 3069 3067 3065 3064 3063 3060 3058 3056 3052
3056 3058 3060 3061 3063 3064 3066 3066 3068 3069 3069 3069 3067 3070 3070 3071 3071 3071 3070 3070 3070 3070 3070 3070 3071 3071 3070 3070 3069 3069 3068 3067 3066 3065 3063 3061 3060 3060 3057 3055 3052 3050 3047 3043
3050 3053 3056 3058 3059 3061 3058 3061 3063 3062 3062 3062 3061 3062 3063 3063 3063 3063 3064 3064 3064 3065 3066 3066 3066 3066 3065 3064 3063 3063 3062 3061 3060 3058 3057 3055 3054 3052 3050 3048 3044 3039 3035 3035
3045 3049 3051 3052 3053 3053 3052 3054 3057 3056 3054 3054 3055 3055 3056 3057 3057 3059 3060 3061 3061 3061 3061 3061 3061 3060 3060 3059 3058 3057 3056 3054 3053 3051 3050 3048 3047 3045 3043 3039 3035 3034 3032 3028
3040 3043 3047 3047 3048 3049 3048 3051 3050 3051 3045 3048 3050 3051 3052 3053 3054 3056 3057 3057 3057 3057 3057 3056 3055 3054 3053 3052 3051 3050 3048 3047 3046 3044 3043 3041 3039 3037 3035 3033 3030 3026 3022 3019
3035 3037 3040 3040 3042 3041 3044 3046 3047 3048 3044 3043 3045 3045 3047 3050 3053 3053 3053 3053 3053 3052 3051 3050 3049 3048 3047 3046 3045 3043 3042 3040 3039 3037 3036 3034 3032 3031 3028 3025 3021 3018 3014 3012
3029 3032 3033 3037 3037 3036 3039 3040 3042 3040 3039 3040 3040 3040 3042 3045 3047 3048 3048 3048 3048 3047 3046 3045 3043 3042 3041 3040 3039 3037 3036 3035 3033 3031 3030 3028 3026 3023 3019 3016 3013 3010 3007 3004
3024 3025 3028 3031 3029 3030 3031 3033 3034 3034 3034 3035 3036 3036 3038 3040 3042 3043 3044 3043 3042 3041 3040 3039 3038 3036 3035 3033 3032 3032 3031 3030 3027 3025 3022 3020 3018 3015 3012 3009 3006 3003 2999 2994
3017 3019 3021 3023 3023 3025 3026 3027 3028 3029 3029 3030 3031 3033 3034 3035 3037 3038 3038 3037 3036 3035 3034 3034 3032 3031 3029 3028 3027 3026 3024 3022 3019 3017 3015 3013 3011 3008 3005 3001 2997 2993 2989 2983
3011 3013 3013 3014 3016 3019 3020 3021 3022 3023 3024 3026 3027 3028 3029 3031 3032 3032 3032 3031 3030 3029 3028 3027 3026 3025 3024 3023 3021 3019 3017 3015 3014 3011 3009 3006 3003 3000 2997 2994 2989 2985 2981 2973
3003 3006 3008 3007 3012 3014 3014 3016 3016 3017 3019 3021 3023 3024 3024 3025 3026 3026 3026 3025 3025 3023 3022 3020 3019 3018 3017 3016 3014 3013 3011 3009 3007 3005 3002 2999 2996 2993 2988 2984 2979 2976 2970 2963